Tracking 19575 objects as of 19-Feb-2019
HD Live streaming from Space Station
objects crossing your sky now

LATINSAT A

Track LATINSAT A now!
10-day predictions
LATINSAT A is classified as:


NORAD ID: 27612
Int'l Code: 2002-058H
Perigee: 596.4 km
Apogee: 680.4 km
Inclination: 64.6 °
Period: 97.3 minutes
Semi major axis: 7009 km
RCS: 0.0297 m2 (small)
Launch date: December 20, 2002
Source: Argentina (ARGN)
Launch site: TYURATAM MISSILE AND SPACE COMPLEX (TTMTR)

Nanosatellite; planned constellation of 48 satellites, little LEO; asset tracking and monitoring services.
aabbcc
Your satellite tracking list
Your tracking list is empty




NASA's NSSDC Master Catalog

Two Line Element Set (TLE):
1 27612U 02058H   19050.17174611 -.00000052  00000-0  12864-4 0  9999
2 27612  64.5553 292.0360 0059919 263.4878  95.9402 14.79397722871681
Source of the keplerian elements: AFSPC